SCP
0 1 1 1 1 1 2 1 1 1 3 2 2 2 2 3 3 6 4 4 2 1 2 1 0 0 0 0 0 0 0 0 0 0 0 0 0 0 0 0 0 0 0
0 1 2 1 2 3 2 4 3 3 3 4 3 2 2 3 4 4 4 3 2 1 1 1 0 0 0 0 0 0 0 0 0 0 0 0 0 0 0 0 0 0 0
0 3 1 1 4 5 5 5 6 7 4 6 5 6 7 8 7 4 3 2 1 1 0 0 0 0 0 0 0 0 0 0 0 0 0 0 0 0 0 0 0 0 0
0 0 0 3 5 4 5 5 6 8 7 6 6 6 5 6 6 3 2 1 1 0 0 0 0 0 0 0 0 0 0 0 0 0 0 0 0 0 0 0 0 0 0
0 0 0 1 1 1 2 4 4 4 5 4 6 6 5 4 5 4 3 1 1 1 0 0 0 0 0 0 0 0 0 0 0 0 0 0 0 0 0 0 0 0 0
0 0 1 1 1 1 2 5 6 6 5 5 8 5 3 5 5 3 2 1 0 0 0 0 0 0 0 0 0 0 0 0 0 0 0 0 0 0 0 0 0 0 0
0 1 2 3 3 2 3 4 4 4 5 4 5 4 5 6 5 3 2 1 0 0 0 0 0 0 0 0 0 0 0 0 0 0 0 0 0 0 0 0 0 0 0
0 0 2 1 2 1 3 3 4 4 4 5 5 5 4 4 3 2 1 0 0 0 0 0 0 0 0 0 0 0 0 0 0 0 0 0 0 0 0 0 0 0 0
0 0 2 2 2 2 4 5 3 3 3 2 2 2 2 2 2 1 0 0 0 0 0 0 0 0 0 0 0 0 0 0 0 0 0 0 0 0 0 0 0 0 0
1 1 1 2 2 3 4 4 1 1 1 1 1 1 1 1 0 0 0 0 0 0 0 0 0 0 0 0 0 0 0 0 0 0 0 0 0 0 0 0 0 0 0
1 1 1 2 1 2 3 3 1 1 1 1 1 1 0 0 0 0 0 0 0 0 0 0 0 0 0 0 0 0 0 0 0 0 0 0 0 0 0 0 0 0 0
0 1 1 2 1 2 2 2 2 1 1 1 1 0 0 0 0 0 0 0 0 0 0 0 0 0 0 0 0 0 0 0 0 0 0 0 0 0 0 0 0 0 0
0 1 2 2 1 2 2 2 1 1 1 0 0 0 0 0 0 0 0 0 0 0 0 0 0 0 0 0 0 0 0 0 0 0 0 0 0 0 0 0 0 0 0
0 1 3 4 2 2 2 2 1 1 1 0 0 0 0 0 0 0 0 0 0 0 0 0 0 0 0 0 0 0 0 0 0 0 0 0 0 0 0 0 0 0 0
0 1 3 4 3 3 2 2 1 1 1 0 0 0 0 0 0 0 0 0 0 0 0 0 0 0 0 0 0 0 0 0 0 0 0 0 0 0 0 0 0 0 0
0 0 4 3 2 3 2 2 1 1 1 0 0 0 0 0 0 0 0 0 0 0 0 0 0 0 0 0 0 0 0 0 0 0 0 0 0 0 0 0 0 0 0
0 1 3 3 3 4 3 2 1 1 0 0 0 0 0 0 0 0 0 0 0 0 0 0 0 0 0 0 0 0 0 0 0 0 0 0 0 0 0 0 0 0 0
1 1 2 4 2 4 3 2 1 1 0 0 0 0 0 0 0 0 0 0 0 0 0 0 0 0 0 0 0 0 0 0 0 0 0 0 0 0 0 0 0 0 0
1 1 3 3 4 3 2 1 1 1 0 0 0 0 0 0 0 0 0 0 0 0 0 0 0 0 0 0 0 0 0 0 0 0 0 0 0 0 0 0 0 0 0
1 1 2 4 4 2 1 1 1 0 0 0 0 0 0 0 0 0 0 0 0 0 0 0 0 0 0 0 0 0 0 0 0 0 0 0 0 0 0 0 0 0 0
0 1 2 2 2 2 1 1 1 0 0 0 0 0 0 0 0 0 0 0 0 0 0 0 0 0 0 0 0 0 0 0 0 0 0 0 0 0 0 0 0 0 0
0 0 1 2 2 1 1 1 1 1 0 0 0 0 0 0 0 0 0 0 0 0 0 0 0 0 0 0 0 0 0 0 0 0 0 0 0 0 0 0 0 0 0
0 0 1 1 1 1 0 1 0 0 0 0 0 0 0 0 0 0 0 0 0 0 0 0 0 0 0 0 0 0 0 0 0 0 0 0 0 0 0 0 0 0 0
1 0 0 0 1 1 1 0 0 0 0 0 0 0 0 0 0 0 0 0 0 0 0 0 0 0 0 0 0 0 0 0 0 0 0 0 0 0 0 0 0 0 0
1 1 1 1 1 0 0 0 0 0 0 0 0 0 0 0 0 0 0 0 0 0 0 0 0 0 0 0 0 0 0 0 0 0 0 0 0 0 0 0 0 0 0
1 1 1 0 0 0 0 0 0 0 0 0 0 0 0 0 0 0 0 0 0 0 0 0 0 0 0 0 0 0 0 0 0 0 0 0 0 0 0 0 0 0 0
Wind_Speed_500mb
61 66 67 66 63 63 60 55 57 52 41 49 46 43 37 38 25 33 37 48 41 35 35 22 34 32 25 18 37 45 38 37 37 37 38 39 36 34 12 20 26 36 42
26 71 65 64 61 65 62 64 51 54 56 47 42 30 36 37 32 38 44 47 40 27 27 22 27 22 21 32 30 34 41 45 30 36 34 33 40 11 24 36 31 37 29
34 71 64 64 58 52 52 53 63 50 53 51 45 46 35 37 42 44 46 37 28 28 22 26 19 26 31 21 33 37 35 29 35 23 29 33 29 43 46 36 32 38 38
26 56 52 51 51 50 45 45 50 59 49 57 45 52 53 46 38 39 31 26 22 21 15 19 23 31 31 27 26 23 33 30 27 21 25 30 34 40 41 32 38 36 35
21 34 34 29 29 34 37 43 43 47 55 51 44 49 42 38 29 32 31 36 30 21 22 27 28 29 30 27 31 25 23 25 19 26 23 25 32 34 41 47 41 38 37
10 22 40 32 35 35 38 39 45 47 46 41 47 40 41 36 40 38 39 37 28 18 22 23 26 31 28 20 24 25 20 26 27 16 22 28 34 42 44 49 47 51 56
18 27 22 19 27 32 35 35 36 38 39 38 43 36 33 42 41 42 26 15 21 22 26 31 31 28 26 26 21 22 23 17 17 28 25 30 32 33 44 45 49 52 64
15 24 44 35 31 31 38 32 36 39 37 39 42 48 49 48 39 25 21 34 22 29 36 33 30 27 20 21 23 25 18 16 31 32 29 38 40 39 50 59 62 61 52
14 13 26 28 24 33 37 39 38 37 43 43 41 41 34 29 28 38 38 32 33 28 29 27 25 19 20 22 23 24 24 27 29 32 39 41 40 50 40 51 47 53 61
17 10 21 18 24 35 37 34 30 30 40 38 37 36 38 41 39 31 29 27 25 24 26 24 19 20 23 24 25 28 26 28 35 36 37 35 47 47 39 53 61 66 59
23 18 24 22 26 36 40 36 32 32 31 32 31 34 37 39 35 29 27 24 24 20 18 15 17 22 26 28 31 34 35 36 35 38 46 54 56 53 55 58 66 56 63
6 18 23 29 34 39 36 39 37 28 31 33 33 34 31 31 25 20 18 19 18 15 14 17 21 26 29 31 33 34 31 34 39 45 53 55 56 57 63 67 61 57 63
44 7 22 29 34 39 34 37 38 35 33 34 36 31 31 27 21 18 19 18 14 13 15 20 25 28 29 31 33 32 34 38 35 38 48 56 55 59 61 57 55 62 53
47 15 24 31 32 36 37 38 36 34 36 36 31 32 30 23 18 18 18 15 14 16 19 23 26 28 29 31 33 32 34 39 48 63 51 48 52 50 52 58 63 55 50
43 25 30 35 33 39 40 40 38 35 39 33 34 33 25 20 18 18 18 12 18 20 23 24 26 28 30 27 28 34 47 54 59 61 46 47 52 65 61 56 57 55 52
65 75 36 41 38 46 45 41 37 39 41 34 32 23 19 18 19 19 16 18 17 21 24 29 27 27 28 31 42 48 50 55 59 46 45 49 51 47 53 61 55 54 49
54 65 26 39 44 47 44 42 41 45 32 33 23 22 22 18 19 15 15 16 22 25 28 28 27 28 31 36 44 48 56 51 50 36 42 55 61 67 64 54 53 54 48
52 59 49 33 38 39 41 43 45 40 33 29 26 23 20 16 17 18 18 21 22 26 26 30 29 31 34 42 48 51 45 48 37 41 48 46 63 68 65 51 50 48 51
44 45 39 18 35 40 47 46 42 33 30 26 27 22 19 16 18 15 18 21 24 26 28 26 29 38 41 45 43 49 47 35 39 37 39 58 64 63 54 55 55 44 45
39 37 28 9 34 43 45 45 35 30 29 26 22 23 15 16 15 17 21 24 23 21 25 31 27 39 45 42 38 29 22 31 43 55 59 63 54 49 54 67 64 70 59
37 34 20 18 27 40 41 39 33 31 26 23 29 17 16 17 14 20 18 20 22 24 27 34 38 48 24 24 21 16 31 54 72 83 66 54 61 62 67 68 68 59 47
26 23 16 19 22 34 35 29 31 29 32 32 16 18 10 6 12 17 18 22 25 32 35 32 29 35 46 43 27 39 59 76 84 83 75 71 62 57 44 36 35 34 31
29 5 6 13 21 24 23 33 35 36 34 19 13 7 2 8 15 18 23 27 30 29 29 35 39 35 35 34 48 65 75 79 81 63 53 44 35 33 32 32 31 29 22
15 7 5 15 16 25 30 35 34 29 21 17 12 7 3 14 21 23 15 24 29 31 31 33 29 29 31 49 64 75 84 69 56 55 39 36 38 34 28 28 24 21 19
21 9 14 18 31 35 32 36 30 27 22 17 12 8 6 15 25 24 25 29 28 31 26 27 25 31 44 56 67 73 57 51 50 42 35 37 38 41 35 29 22 20 14
25 19 20 25 35 39 35 32 29 25 20 10 5 1 1 6 14 21 23 28 33 22 24 21 22 33 47 65 71 55 51 46 45 38 36 38 36 34 32 30 26 19 15
Wind_Direction_500mb
205 191 192 194 198 205 203 212 209 207 205 220 232 212 221 218 217 218 223 233 242 263 268 246 271 293 305 306 275 295 295 298 310 315 305 312 319 311 286 293 307 304 298
224 185 186 190 194 200 207 209 210 215 212 216 220 220 214 219 210 225 229 242 257 246 262 260 263 285 276 276 299 280 285 303 311 302 314 318 317 300 304 311 313 310 305
275 167 181 188 188 194 200 209 213 216 221 215 217 213 206 208 204 218 233 253 234 238 249 270 267 261 269 284 273 281 294 295 300 321 307 311 311 315 302 321 320 313 315
190 157 164 178 192 203 209 217 223 214 221 219 213 217 208 203 207 235 256 246 240 244 254 254 259 279 291 293 284 273 283 294 295 309 301 292 309 312 306 313 312 315 316
156 156 169 186 205 210 213 217 225 222 219 224 204 213 199 204 208 225 228 235 250 236 218 247 269 287 296 280 283 298 296 297 299 281 303 302 318 313 316 314 315 314 310
189 186 174 189 198 201 206 208 215 217 216 214 196 213 190 201 195 211 218 234 251 244 250 261 285 296 298 295 286 281 292 279 294 311 303 317 318 318 318 313 312 309 311
198 177 181 167 180 198 203 204 214 204 198 199 195 197 195 198 201 215 229 211 213 253 269 281 292 296 285 287 296 293 309 324 306 292 315 307 311 316 311 320 323 316 310
297 219 180 183 200 211 200 198 204 193 183 186 189 186 200 205 218 221 207 207 209 229 249 274 288 301 304 300 300 309 296 295 280 303 297 310 306 310 308 305 309 310 309
222 291 152 168 184 197 196 204 215 214 195 192 193 198 208 205 201 201 207 210 221 243 265 285 295 295 297 299 296 305 297 299 291 301 300 306 305 311 308 313 308 309 306
124 166 163 184 186 196 194 198 222 232 206 200 197 194 191 202 208 216 205 232 242 251 263 285 297 294 294 290 287 289 291 288 292 297 294 300 306 309 305 311 305 309 303
146 171 179 195 193 190 190 191 207 213 204 197 199 200 200 208 214 214 222 236 254 273 291 304 282 283 287 289 290 291 295 302 301 297 299 303 306 300 306 312 312 307 309
263 166 181 187 187 193 192 194 196 201 204 199 198 207 201 209 214 224 236 255 271 295 297 285 286 287 285 288 289 292 289 290 293 296 301 304 306 302 308 312 312 302 314
306 164 169 187 192 196 195 197 195 207 207 197 202 200 201 215 220 229 245 262 283 288 282 276 280 284 287 285 292 295 294 296 288 302 303 301 300 305 310 308 312 311 313
307 209 176 189 189 202 198 207 207 201 202 201 203 205 215 218 227 239 250 272 286 278 281 284 284 287 291 291 292 290 287 282 291 302 299 301 303 304 306 304 309 314 313
320 234 176 188 192 205 204 208 210 201 204 195 201 219 219 214 230 240 252 266 260 281 280 287 289 291 294 302 291 296 304 307 309 309 296 297 303 305 303 299 306 307 312
343 339 193 189 195 198 212 212 204 198 202 193 210 213 215 223 230 244 250 262 278 277 279 285 293 295 299 296 297 300 303 310 315 310 311 309 313 310 305 300 292 302 304
353 341 201 184 190 196 206 203 204 206 200 205 197 213 219 226 242 259 254 263 273 280 297 306 305 299 300 300 301 306 314 316 325 317 313 309 306 310 309 299 289 305 302
353 343 344 186 185 198 200 196 198 204 208 194 199 208 223 227 239 244 253 278 292 293 307 301 306 308 308 304 308 312 315 314 317 312 312 305 312 314 310 308 298 298 286
349 341 341 204 175 189 192 194 198 206 192 194 200 206 219 227 238 256 268 276 289 295 305 324 309 303 299 301 315 314 312 315 308 313 307 311 314 313 298 306 305 298 290
350 337 330 216 196 193 188 188 191 191 190 201 198 210 214 228 238 253 266 282 300 321 307 314 327 316 313 302 315 300 302 294 299 312 316 314 306 297 296 303 303 301 289
345 340 321 248 203 187 189 189 183 183 190 194 208 200 218 237 257 281 305 306 318 315 342 323 327 332 343 343 330 302 325 326 326 327 323 308 305 300 298 296 297 296 294
342 352 313 262 208 196 191 178 169 181 188 201 194 213 224 223 254 286 309 338 347 338 325 342 346 347 348 348 345 328 323 323 326 321 318 315 311 310 314 318 316 307 294
322 349 286 181 189 189 187 166 178 192 199 190 181 200 212 304 297 312 330 332 337 336 334 335 334 337 339 329 322 319 319 322 323 324 328 330 335 330 329 325 320 321 306
324 327 219 184 208 185 179 184 188 192 179 167 183 207 276 350 336 353 344 320 319 318 315 325 327 329 314 311 324 329 327 330 338 338 344 350 345 338 333 328 327 330 316
271 209 198 198 182 186 182 186 198 197 177 187 170 147 77 332 333 328 322 328 324 319 323 319 311 322 326 336 335 334 337 339 340 345 351 344 342 343 348 350 352 345 340
248 185 181 203 195 192 189 193 202 184 179 161 136 306 322 57 336 326 337 340 339 335 325 336 347 337 339 340 335 337 339 339 344 355 351 351 353 352 351 351 357 351 354
Wind_Speed_850mb
61 66 67 66 63 63 60 55 57 52 41 49 46 43 37 38 25 33 37 48 41 35 35 22 34 32 25 18 37 45 38 37 37 37 38 39 36 34 12 20 26 36 42
26 71 65 64 61 65 62 64 51 54 56 47 42 30 36 37 32 38 44 47 40 27 27 22 27 22 21 32 30 34 41 45 30 36 34 33 40 11 24 36 31 37 29
34 71 64 64 58 52 52 53 63 50 53 51 45 46 35 37 42 44 46 37 28 28 22 26 19 26 31 21 33 37 35 29 35 23 29 33 29 43 46 36 32 38 38
26 56 52 51 51 50 45 45 50 59 49 57 45 52 53 46 38 39 31 26 22 21 15 19 23 31 31 27 26 23 33 30 27 21 25 30 34 40 41 32 38 36 35
21 34 34 29 29 34 37 43 43 47 55 51 44 49 42 38 29 32 31 36 30 21 22 27 28 29 30 27 31 25 23 25 19 26 23 25 32 34 41 47 41 38 37
10 22 40 32 35 35 38 39 45 47 46 41 47 40 41 36 40 38 39 37 28 18 22 23 26 31 28 20 24 25 20 26 27 16 22 28 34 42 44 49 47 51 56
18 27 22 19 27 32 35 35 36 38 39 38 43 36 33 42 41 42 26 15 21 22 26 31 31 28 26 26 21 22 23 17 17 28 25 30 32 33 44 45 49 52 64
15 24 44 35 31 31 38 32 36 39 37 39 42 48 49 48 39 25 21 34 22 29 36 33 30 27 20 21 23 25 18 16 31 32 29 38 40 39 50 59 62 61 52
14 13 26 28 24 33 37 39 38 37 43 43 41 41 34 29 28 38 38 32 33 28 29 27 25 19 20 22 23 24 24 27 29 32 39 41 40 50 40 51 47 53 61
17 10 21 18 24 35 37 34 30 30 40 38 37 36 38 41 39 31 29 27 25 24 26 24 19 20 23 24 25 28 26 28 35 36 37 35 47 47 39 53 61 66 59
23 18 24 22 26 36 40 36 32 32 31 32 31 34 37 39 35 29 27 24 24 20 18 15 17 22 26 28 31 34 35 36 35 38 46 54 56 53 55 58 66 56 63
6 18 23 29 34 39 36 39 37 28 31 33 33 34 31 31 25 20 18 19 18 15 14 17 21 26 29 31 33 34 31 34 39 45 53 55 56 57 63 67 61 57 63
44 7 22 29 34 39 34 37 38 35 33 34 36 31 31 27 21 18 19 18 14 13 15 20 25 28 29 31 33 32 34 38 35 38 48 56 55 59 61 57 55 62 53
47 15 24 31 32 36 37 38 36 34 36 36 31 32 30 23 18 18 18 15 14 16 19 23 26 28 29 31 33 32 34 39 48 63 51 48 52 50 52 58 63 55 50
43 25 30 35 33 39 40 40 38 35 39 33 34 33 25 20 18 18 18 12 18 20 23 24 26 28 30 27 28 34 47 54 59 61 46 47 52 65 61 56 57 55 52
65 75 36 41 38 46 45 41 37 39 41 34 32 23 19 18 19 19 16 18 17 21 24 29 27 27 28 31 42 48 50 55 59 46 45 49 51 47 53 61 55 54 49
54 65 26 39 44 47 44 42 41 45 32 33 23 22 22 18 19 15 15 16 22 25 28 28 27 28 31 36 44 48 56 51 50 36 42 55 61 67 64 54 53 54 48
52 59 49 33 38 39 41 43 45 40 33 29 26 23 20 16 17 18 18 21 22 26 26 30 29 31 34 42 48 51 45 48 37 41 48 46 63 68 65 51 50 48 51
44 45 39 18 35 40 47 46 42 33 30 26 27 22 19 16 18 15 18 21 24 26 28 26 29 38 41 45 43 49 47 35 39 37 39 58 64 63 54 55 55 44 45
39 37 28 9 34 43 45 45 35 30 29 26 22 23 15 16 15 17 21 24 23 21 25 31 27 39 45 42 38 29 22 31 43 55 59 63 54 49 54 67 64 70 59
37 34 20 18 27 40 41 39 33 31 26 23 29 17 16 17 14 20 18 20 22 24 27 34 38 48 24 24 21 16 31 54 72 83 66 54 61 62 67 68 68 59 47
26 23 16 19 22 34 35 29 31 29 32 32 16 18 10 6 12 17 18 22 25 32 35 32 29 35 46 43 27 39 59 76 84 83 75 71 62 57 44 36 35 34 31
29 5 6 13 21 24 23 33 35 36 34 19 13 7 2 8 15 18 23 27 30 29 29 35 39 35 35 34 48 65 75 79 81 63 53 44 35 33 32 32 31 29 22
15 7 5 15 16 25 30 35 34 29 21 17 12 7 3 14 21 23 15 24 29 31 31 33 29 29 31 49 64 75 84 69 56 55 39 36 38 34 28 28 24 21 19
21 9 14 18 31 35 32 36 30 27 22 17 12 8 6 15 25 24 25 29 28 31 26 27 25 31 44 56 67 73 57 51 50 42 35 37 38 41 35 29 22 20 14
25 19 20 25 35 39 35 32 29 25 20 10 5 1 1 6 14 21 23 28 33 22 24 21 22 33 47 65 71 55 51 46 45 38 36 38 36 34 32 30 26 19 15
Wind_Direction_850mb
205 191 192 194 198 205 203 212 209 207 205 220 232 212 221 218 217 218 223 233 242 263 268 246 271 293 305 306 275 295 295 298 310 315 305 312 319 311 286 293 307 304 298
224 185 186 190 194 200 207 209 210 215 212 216 220 220 214 219 210 225 229 242 257 246 262 260 263 285 276 276 299 280 285 303 311 302 314 318 317 300 304 311 313 310 305
275 167 181 188 188 194 200 209 213 216 221 215 217 213 206 208 204 218 233 253 234 238 249 270 267 261 269 284 273 281 294 295 300 321 307 311 311 315 302 321 320 313 315
190 157 164 178 192 203 209 217 223 214 221 219 213 217 208 203 207 235 256 246 240 244 254 254 259 279 291 293 284 273 283 294 295 309 301 292 309 312 306 313 312 315 316
156 156 169 186 205 210 213 217 225 222 219 224 204 213 199 204 208 225 228 235 250 236 218 247 269 287 296 280 283 298 296 297 299 281 303 302 318 313 316 314 315 314 310
189 186 174 189 198 201 206 208 215 217 216 214 196 213 190 201 195 211 218 234 251 244 250 261 285 296 298 295 286 281 292 279 294 311 303 317 318 318 318 313 312 309 311
198 177 181 167 180 198 203 204 214 204 198 199 195 197 195 198 201 215 229 211 213 253 269 281 292 296 285 287 296 293 309 324 306 292 315 307 311 316 311 320 323 316 310
297 219 180 183 200 211 200 198 204 193 183 186 189 186 200 205 218 221 207 207 209 229 249 274 288 301 304 300 300 309 296 295 280 303 297 310 306 310 308 305 309 310 309
222 291 152 168 184 197 196 204 215 214 195 192 193 198 208 205 201 201 207 210 221 243 265 285 295 295 297 299 296 305 297 299 291 301 300 306 305 311 308 313 308 309 306
124 166 163 184 186 196 194 198 222 232 206 200 197 194 191 202 208 216 205 232 242 251 263 285 297 294 294 290 287 289 291 288 292 297 294 300 306 309 305 311 305 309 303
146 171 179 195 193 190 190 191 207 213 204 197 199 200 200 208 214 214 222 236 254 273 291 304 282 283 287 289 290 291 295 302 301 297 299 303 306 300 306 312 312 307 309
263 166 181 187 187 193 192 194 196 201 204 199 198 207 201 209 214 224 236 255 271 295 297 285 286 287 285 288 289 292 289 290 293 296 301 304 306 302 308 312 312 302 314
306 164 169 187 192 196 195 197 195 207 207 197 202 200 201 215 220 229 245 262 283 288 282 276 280 284 287 285 292 295 294 296 288 302 303 301 300 305 310 308 312 311 313
307 209 176 189 189 202 198 207 207 201 202 201 203 205 215 218 227 239 250 272 286 278 281 284 284 287 291 291 292 290 287 282 291 302 299 301 303 304 306 304 309 314 313
320 234 176 188 192 205 204 208 210 201 204 195 201 219 219 214 230 240 252 266 260 281 280 287 289 291 294 302 291 296 304 307 309 309 296 297 303 305 303 299 306 307 312
343 339 193 189 195 198 212 212 204 198 202 193 210 213 215 223 230 244 250 262 278 277 279 285 293 295 299 296 297 300 303 310 315 310 311 309 313 310 305 300 292 302 304
353 341 201 184 190 196 206 203 204 206 200 205 197 213 219 226 242 259 254 263 273 280 297 306 305 299 300 300 301 306 314 316 325 317 313 309 306 310 309 299 289 305 302
353 343 344 186 185 198 200 196 198 204 208 194 199 208 223 227 239 244 253 278 292 293 307 301 306 308 308 304 308 312 315 314 317 312 312 305 312 314 310 308 298 298 286
349 341 341 204 175 189 192 194 198 206 192 194 200 206 219 227 238 256 268 276 289 295 305 324 309 303 299 301 315 314 312 315 308 313 307 311 314 313 298 306 305 298 290
350 337 330 216 196 193 188 188 191 191 190 201 198 210 214 228 238 253 266 282 300 321 307 314 327 316 313 302 315 300 302 294 299 312 316 314 306 297 296 303 303 301 289
345 340 321 248 203 187 189 189 183 183 190 194 208 200 218 237 257 281 305 306 318 315 342 323 327 332 343 343 330 302 325 326 326 327 323 308 305 300 298 296 297 296 294
342 352 313 262 208 196 191 178 169 181 188 201 194 213 224 223 254 286 309 338 347 338 325 342 346 347 348 348 345 328 323 323 326 321 318 315 311 310 314 318 316 307 294
322 349 286 181 189 189 187 166 178 192 199 190 181 200 212 304 297 312 330 332 337 336 334 335 334 337 339 329 322 319 319 322 323 324 328 330 335 330 329 325 320 321 306
324 327 219 184 208 185 179 184 188 192 179 167 183 207 276 350 336 353 344 320 319 318 315 325 327 329 314 311 324 329 327 330 338 338 344 350 345 338 333 328 327 330 316
271 209 198 198 182 186 182 186 198 197 177 187 170 147 77 332 333 328 322 328 324 319 323 319 311 322 326 336 335 334 337 339 340 345 351 344 342 343 348 350 352 345 340
248 185 181 203 195 192 189 193 202 184 179 161 136 306 322 57 336 326 337 340 339 335 325 336 347 337 339 340 335 337 339 339 344 355 351 351 353 352 351 351 357 351 354